PWSweather.com
Personal Weather Stations
Station Observations
KNVELKO7
Elko, NV 89801

Elko, NV 89801

Lat: 40.963233, Lon: -115.592836

Elevation: 5230

Station Type: WS-2812

High Low Average
Temperature 73.3°F22.9°C 24.5°F-4.2°C 45.7°F7.6°C
Dew Point 36.2°F2.3°C 15.3°F-9.3°C 22.7°F-5.2°C
Winds 6.7 mph 10.8 kmh Calm Calm 2.0 mph E3.2 kmh E
Wind Gusts 6.9 mph11.1 kmh -- 3.0 mph4.8 kmh
Humidity 70% 21% 44%
Pressure 30.22 in1023.4 mb 30.00 in1015.9 mb -
Precipitation 0.00 in0.0 mm - -
Hour Temp Dew Point Humidity Winds Wind Gusts Pressure Precip Precip Rate Daily Precip Total
12:02 AM 33.8°F1.0°C 19.3°F-7.1°C 55% 4.3 mph N6.9 kmh N 4.7 mph7.6 kmh 30.21 in1023.0 mb 0.00 in0.0 mm 0.00 in/hr0.0 mm/hr 0.00 in0.0 mm
12:07 AM 33.8°F1.0°C 20.2°F-6.6°C 57% 4.5 mph NNE7.2 kmh NNE 4.7 mph7.6 kmh 30.21 in1023.0 mb 0.00 in0.0 mm 0.00 in/hr0.0 mm/hr 0.00 in0.0 mm
12:12 AM 34.0°F1.1°C 19.9°F-6.7°C 56% 1.2 mph 1.9 kmh 4.7 mph7.6 kmh 30.22 in1023.4 mb 0.00 in0.0 mm 0.00 in/hr0.0 mm/hr 0.00 in0.0 mm
12:17 AM 33.7°F0.9°C 19.1°F-7.2°C 55% 2.3 mph N3.7 kmh N 4.0 mph6.4 kmh 30.21 in1023.0 mb 0.00 in0.0 mm 0.00 in/hr0.0 mm/hr 0.00 in0.0 mm
12:22 AM 33.7°F0.9°C 19.1°F-7.2°C 55% 1.8 mph NNE2.9 kmh NNE 4.0 mph6.4 kmh 30.22 in1023.4 mb 0.00 in0.0 mm 0.00 in/hr0.0 mm/hr 0.00 in0.0 mm
12:27 AM 34.2°F1.2°C 20.1°F-6.6°C 56% 2.5 mph NE4.0 kmh NE 3.4 mph5.5 kmh 30.22 in1023.4 mb 0.00 in0.0 mm 0.00 in/hr0.0 mm/hr 0.00 in0.0 mm
12:32 AM 34.4°F1.3°C 20.3°F-6.5°C 56% 3.5 mph NE5.6 kmh NE 4.0 mph6.4 kmh 30.22 in1023.4 mb 0.00 in0.0 mm 0.00 in/hr0.0 mm/hr 0.00 in0.0 mm
12:37 AM 34.2°F1.2°C 19.6°F-6.9°C 55% 2.7 mph NE4.3 kmh NE 4.0 mph6.4 kmh 30.22 in1023.4 mb 0.00 in0.0 mm 0.00 in/hr0.0 mm/hr 0.00 in0.0 mm
12:42 AM 33.8°F1.0°C 19.3°F-7.1°C 55% Calm Calm 4.0 mph6.4 kmh 30.22 in1023.4 mb 0.00 in0.0 mm 0.00 in/hr0.0 mm/hr 0.00 in0.0 mm
12:47 AM 33.5°F0.8°C 18.6°F-7.4°C 54% 0.2 mph SE0.3 kmh SE 2.7 mph4.3 kmh 30.22 in1023.4 mb 0.00 in0.0 mm 0.00 in/hr0.0 mm/hr 0.00 in0.0 mm
12:52 AM 32.8°F0.4°C 17.8°F-7.9°C 54% Calm Calm 0.2 mph0.3 kmh 30.22 in1023.4 mb 0.00 in0.0 mm 0.00 in/hr0.0 mm/hr 0.00 in0.0 mm
12:57 AM 32.2°F0.1°C 17.4°F-8.1°C 54% Calm Calm 0.4 mph0.6 kmh 30.22 in1023.4 mb 0.00 in0.0 mm 0.00 in/hr0.0 mm/hr 0.00 in0.0 mm
01:02 AM 31.9°F-0.1°C 16.7°F-8.5°C 53% Calm Calm 0.4 mph0.6 kmh 30.22 in1023.4 mb 0.00 in0.0 mm 0.00 in/hr0.0 mm/hr 0.00 in0.0 mm
01:07 AM 31.5°F-0.3°C 16.8°F-8.4°C 54% 0.7 mph 1.1 kmh 0.7 mph1.1 kmh 30.22 in1023.4 mb 0.00 in0.0 mm 0.00 in/hr0.0 mm/hr 0.00 in0.0 mm
01:12 AM 31.1°F-0.5°C 16.4°F-8.7°C 54% 2.7 mph 4.3 kmh 3.1 mph5.0 kmh 30.21 in1023.0 mb 0.00 in0.0 mm 0.00 in/hr0.0 mm/hr 0.00 in0.0 mm
01:17 AM 31.0°F-0.6°C 16.7°F-8.5°C 55% 2.7 mph NNE4.3 kmh NNE 3.1 mph5.0 kmh 30.21 in1023.0 mb 0.00 in0.0 mm 0.00 in/hr0.0 mm/hr 0.00 in0.0 mm
01:22 AM 31.0°F-0.6°C 17.0°F-8.3°C 56% 1.1 mph N1.8 kmh N 2.9 mph4.7 kmh 30.21 in1023.0 mb 0.00 in0.0 mm 0.00 in/hr0.0 mm/hr 0.00 in0.0 mm
01:27 AM 30.8°F-0.7°C 16.8°F-8.4°C 56% 1.9 mph 3.1 kmh 2.5 mph4.0 kmh 30.21 in1023.0 mb 0.00 in0.0 mm 0.00 in/hr0.0 mm/hr 0.00 in0.0 mm
01:32 AM 30.6°F-0.8°C 16.7°F-8.5°C 56% Calm Calm 2.0 mph3.2 kmh 30.21 in1023.0 mb 0.00 in0.0 mm 0.00 in/hr0.0 mm/hr 0.00 in0.0 mm
01:37 AM 30.4°F-0.9°C 16.9°F-8.4°C 57% 0.4 mph 0.6 kmh 0.9 mph1.4 kmh 30.21 in1023.0 mb 0.00 in0.0 mm 0.00 in/hr0.0 mm/hr 0.00 in0.0 mm
01:42 AM 30.4°F-0.9°C 16.9°F-8.4°C 57% 1.8 mph 2.9 kmh 2.5 mph4.0 kmh 30.21 in1023.0 mb 0.00 in0.0 mm 0.00 in/hr0.0 mm/hr 0.00 in0.0 mm
01:47 AM 30.6°F-0.8°C 17.9°F-7.8°C 59% 2.5 mph NE4.0 kmh NE 4.3 mph6.9 kmh 30.21 in1023.0 mb 0.00 in0.0 mm 0.00 in/hr0.0 mm/hr 0.00 in0.0 mm
01:52 AM 30.8°F-0.7°C 18.5°F-7.5°C 60% 2.8 mph ENE4.5 kmh ENE 4.3 mph6.9 kmh 30.21 in1023.0 mb 0.00 in0.0 mm 0.00 in/hr0.0 mm/hr 0.00 in0.0 mm
01:57 AM 30.8°F-0.7°C 18.1°F-7.7°C 59% 3.9 mph 6.3 kmh 4.0 mph6.4 kmh 30.22 in1023.4 mb 0.00 in0.0 mm 0.00 in/hr0.0 mm/hr 0.00 in0.0 mm
02:02 AM 30.6°F-0.8°C 17.9°F-7.8°C 59% 2.3 mph NE3.7 kmh NE 5.1 mph8.2 kmh 30.21 in1023.0 mb 0.00 in0.0 mm 0.00 in/hr0.0 mm/hr 0.00 in0.0 mm
02:07 AM 30.6°F-0.8°C 17.9°F-7.8°C 59% 3.2 mph 5.1 kmh 5.1 mph8.2 kmh 30.22 in1023.4 mb 0.00 in0.0 mm 0.00 in/hr0.0 mm/hr 0.00 in0.0 mm
02:12 AM 30.2°F-1.0°C 18.0°F-7.8°C 60% 6.7 mph 10.8 kmh 6.7 mph10.8 kmh 30.22 in1023.4 mb 0.00 in0.0 mm 0.00 in/hr0.0 mm/hr 0.00 in0.0 mm
02:17 AM 30.2°F-1.0°C 18.7°F-7.4°C 62% 3.7 mph NE6.0 kmh NE 6.7 mph10.8 kmh 30.22 in1023.4 mb 0.00 in0.0 mm 0.00 in/hr0.0 mm/hr 0.00 in0.0 mm
02:22 AM 30.2°F-1.0°C 18.7°F-7.4°C 62% 3.4 mph NNE5.5 kmh NNE 6.0 mph9.7 kmh 30.21 in1023.0 mb 0.00 in0.0 mm 0.00 in/hr0.0 mm/hr 0.00 in0.0 mm
02:27 AM 30.4°F-0.9°C 19.6°F-6.9°C 64% 3.1 mph NE5.0 kmh NE 4.5 mph7.2 kmh 30.22 in1023.4 mb 0.00 in0.0 mm 0.00 in/hr0.0 mm/hr 0.00 in0.0 mm
02:32 AM 30.2°F-1.0°C 18.7°F-7.4°C 62% Calm Calm 4.5 mph7.2 kmh 30.22 in1023.4 mb 0.00 in0.0 mm 0.00 in/hr0.0 mm/hr 0.00 in0.0 mm
02:37 AM 30.1°F-1.1°C 18.5°F-7.5°C 62% 1.0 mph SSW1.6 kmh SSW 1.8 mph2.9 kmh 30.22 in1023.4 mb 0.00 in0.0 mm 0.00 in/hr0.0 mm/hr 0.00 in0.0 mm
02:42 AM 29.7°F-1.3°C 17.9°F-7.8°C 61% 0.4 mph SE0.6 kmh SE 3.1 mph5.0 kmh 30.21 in1023.0 mb 0.00 in0.0 mm 0.00 in/hr0.0 mm/hr 0.00 in0.0 mm
02:47 AM 29.3°F-1.5°C 17.6°F-8.0°C 61% Calm Calm 3.1 mph5.0 kmh 30.21 in1023.0 mb 0.00 in0.0 mm 0.00 in/hr0.0 mm/hr 0.00 in0.0 mm
02:52 AM 29.0°F-1.7°C 17.2°F-8.2°C 61% 0.2 mph WSW0.3 kmh WSW 0.2 mph0.3 kmh 30.21 in1023.0 mb 0.00 in0.0 mm 0.00 in/hr0.0 mm/hr 0.00 in0.0 mm
02:57 AM 28.4°F-2.0°C 16.4°F-8.7°C 60% Calm Calm 0.4 mph0.6 kmh 30.22 in1023.4 mb 0.00 in0.0 mm 0.00 in/hr0.0 mm/hr 0.00 in0.0 mm
03:03 AM 28.3°F-2.1°C 16.2°F-8.8°C 60% Calm Calm 0.4 mph0.6 kmh 30.21 in1023.0 mb 0.00 in0.0 mm 0.00 in/hr0.0 mm/hr 0.00 in0.0 mm
03:08 AM 28.1°F-2.2°C 16.0°F-8.9°C 60% 0.7 mph N1.1 kmh N 1.1 mph1.8 kmh 30.22 in1023.4 mb 0.00 in0.0 mm 0.00 in/hr0.0 mm/hr 0.00 in0.0 mm
03:13 AM 28.4°F-2.0°C 17.1°F-8.3°C 62% 4.8 mph NNE7.7 kmh NNE 4.9 mph7.9 kmh 30.22 in1023.4 mb 0.00 in0.0 mm 0.00 in/hr0.0 mm/hr 0.00 in0.0 mm
03:17 AM 28.6°F-1.9°C 17.3°F-8.2°C 62% 1.7 mph N2.7 kmh N 4.9 mph7.9 kmh 30.21 in1023.0 mb 0.00 in0.0 mm 0.00 in/hr0.0 mm/hr 0.00 in0.0 mm
03:22 AM 28.8°F-1.8°C 17.5°F-8.1°C 62% 2.8 mph 4.5 kmh 4.9 mph7.9 kmh 30.21 in1023.0 mb 0.00 in0.0 mm 0.00 in/hr0.0 mm/hr 0.00 in0.0 mm
03:27 AM 28.6°F-1.9°C 17.3°F-8.2°C 62% Calm Calm 4.5 mph7.2 kmh 30.22 in1023.4 mb 0.00 in0.0 mm 0.00 in/hr0.0 mm/hr 0.00 in0.0 mm
03:32 AM 28.4°F-2.0°C 17.1°F-8.3°C 62% Calm Calm 1.1 mph1.8 kmh 30.21 in1023.0 mb 0.00 in0.0 mm 0.00 in/hr0.0 mm/hr 0.00 in0.0 mm
03:37 AM 28.1°F-2.2°C 16.7°F-8.5°C 62% Calm Calm 0.2 mph0.3 kmh 30.21 in1023.0 mb 0.00 in0.0 mm 0.00 in/hr0.0 mm/hr 0.00 in0.0 mm
03:42 AM 27.7°F-2.4°C 16.4°F-8.7°C 62% Calm Calm 0.4 mph0.6 kmh 30.21 in1023.0 mb 0.00 in0.0 mm 0.00 in/hr0.0 mm/hr 0.00 in0.0 mm
03:47 AM 27.7°F-2.4°C 16.4°F-8.7°C 62% Calm Calm 0.4 mph0.6 kmh 30.21 in1023.0 mb 0.00 in0.0 mm 0.00 in/hr0.0 mm/hr 0.00 in0.0 mm
03:52 AM 27.4°F-2.6°C 16.0°F-8.9°C 62% 1.1 mph NE1.8 kmh NE 1.1 mph1.8 kmh 30.21 in1023.0 mb 0.00 in0.0 mm 0.00 in/hr0.0 mm/hr 0.00 in0.0 mm
03:57 AM 27.4°F-2.6°C 16.0°F-8.9°C 62% 2.0 mph 3.2 kmh 3.4 mph5.5 kmh 30.21 in1023.0 mb 0.00 in0.0 mm 0.00 in/hr0.0 mm/hr 0.00 in0.0 mm
04:03 AM 27.4°F-2.6°C 16.0°F-8.9°C 62% 0.2 mph 0.3 kmh 3.4 mph5.5 kmh 30.21 in1023.0 mb 0.00 in0.0 mm 0.00 in/hr0.0 mm/hr 0.00 in0.0 mm
04:08 AM 27.4°F-2.6°C 16.0°F-8.9°C 62% 0.4 mph E0.6 kmh E 0.4 mph0.6 kmh 30.21 in1023.0 mb 0.00 in0.0 mm 0.00 in/hr0.0 mm/hr 0.00 in0.0 mm
04:13 AM 27.2°F-2.7°C 15.8°F-9.0°C 62% 2.2 mph E3.5 kmh E 2.5 mph4.0 kmh 30.21 in1023.0 mb 0.00 in0.0 mm 0.00 in/hr0.0 mm/hr 0.00 in0.0 mm
04:18 AM 27.0°F-2.8°C 15.7°F-9.1°C 62% 2.0 mph ESE3.2 kmh ESE 2.5 mph4.0 kmh 30.21 in1023.0 mb 0.00 in0.0 mm 0.00 in/hr0.0 mm/hr 0.00 in0.0 mm
04:23 AM 26.5°F-3.1°C 15.5°F-9.2°C 63% 3.7 mph E6.0 kmh E 4.0 mph6.4 kmh 30.21 in1023.0 mb 0.00 in0.0 mm 0.00 in/hr0.0 mm/hr 0.00 in0.0 mm
04:28 AM 26.3°F-3.2°C 15.3°F-9.3°C 63% 3.9 mph E6.3 kmh E 4.5 mph7.2 kmh 30.21 in1023.0 mb 0.00 in0.0 mm 0.00 in/hr0.0 mm/hr 0.00 in0.0 mm
04:33 AM 26.1°F-3.3°C 15.5°F-9.2°C 64% 4.3 mph E6.9 kmh E 4.5 mph7.2 kmh 30.21 in1023.0 mb 0.00 in0.0 mm 0.00 in/hr0.0 mm/hr 0.00 in0.0 mm
04:38 AM 25.9°F-3.4°C 16.0°F-8.9°C 66% 2.9 mph E4.7 kmh E 4.5 mph7.2 kmh 30.21 in1023.0 mb 0.00 in0.0 mm 0.00 in/hr0.0 mm/hr 0.00 in0.0 mm
04:43 AM 25.9°F-3.4°C 16.0°F-8.9°C 66% 3.1 mph ENE5.0 kmh ENE 4.3 mph6.9 kmh 30.21 in1023.0 mb 0.00 in0.0 mm 0.00 in/hr0.0 mm/hr 0.00 in0.0 mm
04:47 AM 25.9°F-3.4°C 16.0°F-8.9°C 66% 2.2 mph ENE3.5 kmh ENE 3.4 mph5.5 kmh 30.20 in1022.7 mb 0.00 in0.0 mm 0.00 in/hr0.0 mm/hr 0.00 in0.0 mm
04:52 AM 25.9°F-3.4°C 15.7°F-9.1°C 65% 1.6 mph NNE2.6 kmh NNE 2.7 mph4.3 kmh 30.20 in1022.7 mb 0.00 in0.0 mm 0.00 in/hr0.0 mm/hr 0.00 in0.0 mm
04:57 AM 26.1°F-3.3°C 15.5°F-9.2°C 64% 0.9 mph NNE1.4 kmh NNE 2.5 mph4.0 kmh 30.20 in1022.7 mb 0.00 in0.0 mm 0.00 in/hr0.0 mm/hr 0.00 in0.0 mm
05:03 AM 26.1°F-3.3°C 15.5°F-9.2°C 64% 0.2 mph 0.3 kmh 1.6 mph2.6 kmh 30.20 in1022.7 mb 0.00 in0.0 mm 0.00 in/hr0.0 mm/hr 0.00 in0.0 mm
05:08 AM 25.9°F-3.4°C 15.7°F-9.1°C 65% Calm Calm 0.2 mph0.3 kmh 30.20 in1022.7 mb 0.00 in0.0 mm 0.00 in/hr0.0 mm/hr 0.00 in0.0 mm
05:13 AM 25.9°F-3.4°C 15.7°F-9.1°C 65% Calm Calm 0.2 mph0.3 kmh 30.20 in1022.7 mb 0.00 in0.0 mm 0.00 in/hr0.0 mm/hr 0.00 in0.0 mm
05:18 AM 25.7°F-3.5°C 15.6°F-9.1°C 65% 0.4 mph NNE0.6 kmh NNE 1.6 mph2.6 kmh 30.20 in1022.7 mb 0.00 in0.0 mm 0.00 in/hr0.0 mm/hr 0.00 in0.0 mm
05:23 AM 26.1°F-3.3°C 15.8°F-9.0°C 65% 1.8 mph NE2.9 kmh NE 2.5 mph4.0 kmh 30.20 in1022.7 mb 0.00 in0.0 mm 0.00 in/hr0.0 mm/hr 0.00 in0.0 mm
05:28 AM 26.1°F-3.3°C 15.8°F-9.0°C 65% 0.2 mph NE0.3 kmh NE 2.5 mph4.0 kmh 30.20 in1022.7 mb 0.00 in0.0 mm 0.00 in/hr0.0 mm/hr 0.00 in0.0 mm
05:33 AM 25.9°F-3.4°C 15.7°F-9.1°C 65% 0.4 mph 0.6 kmh 2.5 mph4.0 kmh 30.20 in1022.7 mb 0.00 in0.0 mm 0.00 in/hr0.0 mm/hr 0.00 in0.0 mm
05:38 AM 25.7°F-3.5°C 15.8°F-9.0°C 66% 2.2 mph 3.5 kmh 2.5 mph4.0 kmh 30.20 in1022.7 mb 0.00 in0.0 mm 0.00 in/hr0.0 mm/hr 0.00 in0.0 mm
05:43 AM 25.7°F-3.5°C 15.8°F-9.0°C 66% Calm Calm 2.5 mph4.0 kmh 30.20 in1022.7 mb 0.00 in0.0 mm 0.00 in/hr0.0 mm/hr 0.00 in0.0 mm
05:48 AM 25.9°F-3.4°C 16.0°F-8.9°C 66% Calm Calm 0.9 mph1.4 kmh 30.20 in1022.7 mb 0.00 in0.0 mm 0.00 in/hr0.0 mm/hr 0.00 in0.0 mm
05:53 AM 25.7°F-3.5°C 15.8°F-9.0°C 66% 0.4 mph NNE0.6 kmh NNE 0.4 mph0.6 kmh 30.20 in1022.7 mb 0.00 in0.0 mm 0.00 in/hr0.0 mm/hr 0.00 in0.0 mm
05:58 AM 25.7°F-3.5°C 15.8°F-9.0°C 66% Calm Calm 0.4 mph0.6 kmh 30.20 in1022.7 mb 0.00 in0.0 mm 0.00 in/hr0.0 mm/hr 0.00 in0.0 mm
06:03 AM 25.6°F-3.6°C 15.7°F-9.1°C 66% Calm Calm 0.7 mph1.1 kmh 30.20 in1022.7 mb 0.00 in0.0 mm 0.00 in/hr0.0 mm/hr 0.00 in0.0 mm
06:08 AM 25.7°F-3.5°C 15.8°F-9.0°C 66% 1.1 mph NE1.8 kmh NE 1.6 mph2.6 kmh 30.20 in1022.7 mb 0.00 in0.0 mm 0.00 in/hr0.0 mm/hr 0.00 in0.0 mm
06:13 AM 25.7°F-3.5°C 16.6°F-8.6°C 68% 2.3 mph ENE3.7 kmh ENE 4.0 mph6.4 kmh 30.20 in1022.7 mb 0.00 in0.0 mm 0.00 in/hr0.0 mm/hr 0.00 in0.0 mm
06:18 AM 25.6°F-3.6°C 15.7°F-9.1°C 66% 1.8 mph NNE2.9 kmh NNE 4.0 mph6.4 kmh 30.20 in1022.7 mb 0.00 in0.0 mm 0.00 in/hr0.0 mm/hr 0.00 in0.0 mm
06:23 AM 25.6°F-3.6°C 16.0°F-8.9°C 67% 2.0 mph ENE3.2 kmh ENE 3.1 mph5.0 kmh 30.20 in1022.7 mb 0.00 in0.0 mm 0.00 in/hr0.0 mm/hr 0.00 in0.0 mm
06:28 AM 25.7°F-3.5°C 16.6°F-8.6°C 68% 3.8 mph E6.1 kmh E 4.7 mph7.6 kmh 30.20 in1022.7 mb 0.00 in0.0 mm 0.00 in/hr0.0 mm/hr 0.00 in0.0 mm
06:33 AM 25.9°F-3.4°C 16.7°F-8.5°C 68% 4.7 mph ENE7.6 kmh ENE 5.1 mph8.2 kmh 30.20 in1022.7 mb 0.00 in0.0 mm 0.00 in/hr0.0 mm/hr 0.00 in0.0 mm
06:38 AM 25.9°F-3.4°C 16.7°F-8.5°C 68% 3.2 mph 5.1 kmh 5.1 mph8.2 kmh 30.20 in1022.7 mb 0.00 in0.0 mm 0.00 in/hr0.0 mm/hr 0.00 in0.0 mm
06:43 AM 25.7°F-3.5°C 16.6°F-8.6°C 68% 3.7 mph N6.0 kmh N 3.8 mph6.1 kmh 30.20 in1022.7 mb 0.00 in0.0 mm 0.00 in/hr0.0 mm/hr 0.00 in0.0 mm
06:48 AM 25.6°F-3.6°C 16.4°F-8.7°C 68% 0.6 mph NE1.0 kmh NE 3.8 mph6.1 kmh 30.20 in1022.7 mb 0.00 in0.0 mm 0.00 in/hr0.0 mm/hr 0.00 in0.0 mm
06:53 AM 25.4°F-3.7°C 16.2°F-8.8°C 68% 1.2 mph ENE1.9 kmh ENE 3.4 mph5.5 kmh 30.20 in1022.7 mb 0.00 in0.0 mm 0.00 in/hr0.0 mm/hr 0.00 in0.0 mm
06:58 AM 25.0°F-3.9°C 15.8°F-9.0°C 68% 0.4 mph ENE0.6 kmh ENE 1.8 mph2.9 kmh 30.20 in1022.7 mb 0.00 in0.0 mm 0.00 in/hr0.0 mm/hr 0.00 in0.0 mm
07:03 AM 24.8°F-4.0°C 15.7°F-9.1°C 68% 0.7 mph NNE1.1 kmh NNE 1.8 mph2.9 kmh 30.20 in1022.7 mb 0.00 in0.0 mm 0.00 in/hr0.0 mm/hr 0.00 in0.0 mm
07:08 AM 24.7°F-4.1°C 15.6°F-9.1°C 68% 2.0 mph E3.2 kmh E 2.5 mph4.0 kmh 30.20 in1022.7 mb 0.00 in0.0 mm 0.00 in/hr0.0 mm/hr 0.00 in0.0 mm
07:13 AM 24.5°F-4.2°C 15.8°F-9.0°C 69% 1.0 mph ENE1.6 kmh ENE 3.4 mph5.5 kmh 30.20 in1022.7 mb 0.00 in0.0 mm 0.00 in/hr0.0 mm/hr 0.00 in0.0 mm
07:18 AM 24.7°F-4.1°C 15.8°F-9.0°C 69% 3.2 mph E5.1 kmh E 3.8 mph6.1 kmh 30.20 in1022.7 mb 0.00 in0.0 mm 0.00 in/hr0.0 mm/hr 0.00 in0.0 mm
07:24 AM 24.8°F-4.0°C 15.7°F-9.1°C 68% 2.2 mph N3.5 kmh N 4.7 mph7.6 kmh 30.20 in1022.7 mb 0.00 in0.0 mm 0.00 in/hr0.0 mm/hr 0.00 in0.0 mm
07:29 AM 24.7°F-4.1°C 15.6°F-9.1°C 68% 3.9 mph ENE6.3 kmh ENE 4.3 mph6.9 kmh 30.20 in1022.7 mb 0.00 in0.0 mm 0.00 in/hr0.0 mm/hr 0.00 in0.0 mm
07:33 AM 24.8°F-4.0°C 16.0°F-8.9°C 69% 4.1 mph E6.6 kmh E 4.5 mph7.2 kmh 30.20 in1022.7 mb 0.00 in0.0 mm 0.00 in/hr0.0 mm/hr 0.00 in0.0 mm
07:38 AM 25.0°F-3.9°C 16.6°F-8.6°C 70% 4.3 mph ENE6.9 kmh ENE 4.7 mph7.6 kmh 30.20 in1022.7 mb 0.00 in0.0 mm 0.00 in/hr0.0 mm/hr 0.00 in0.0 mm
07:43 AM 25.6°F-3.6°C 17.1°F-8.3°C 70% 2.6 mph NE4.2 kmh NE 6.0 mph9.7 kmh 30.21 in1023.0 mb 0.00 in0.0 mm 0.00 in/hr0.0 mm/hr 0.00 in0.0 mm
07:48 AM 25.7°F-3.5°C 16.9°F-8.4°C 69% 2.9 mph NNE4.7 kmh NNE 6.0 mph9.7 kmh 30.20 in1022.7 mb 0.00 in0.0 mm 0.00 in/hr0.0 mm/hr 0.00 in0.0 mm
07:53 AM 26.1°F-3.3°C 17.3°F-8.2°C 69% 3.1 mph NE5.0 kmh NE 3.6 mph5.8 kmh 30.20 in1022.7 mb 0.00 in0.0 mm 0.00 in/hr0.0 mm/hr 0.00 in0.0 mm
07:58 AM 26.6°F-3.0°C 17.8°F-7.9°C 69% 1.3 mph NNE2.1 kmh NNE 3.4 mph5.5 kmh 30.20 in1022.7 mb 0.00 in0.0 mm 0.00 in/hr0.0 mm/hr 0.00 in0.0 mm
08:04 AM 27.2°F-2.7°C 18.4°F-7.6°C 69% 0.8 mph ENE1.3 kmh ENE 2.7 mph4.3 kmh 30.21 in1023.0 mb 0.00 in0.0 mm 0.00 in/hr0.0 mm/hr 0.00 in0.0 mm
08:09 AM 27.7°F-2.4°C 18.9°F-7.3°C 69% 0.5 mph NNE0.8 kmh NNE 1.1 mph1.8 kmh 30.21 in1023.0 mb 0.00 in0.0 mm 0.00 in/hr0.0 mm/hr 0.00 in0.0 mm
08:14 AM 28.3°F-2.1°C 19.1°F-7.2°C 68% Calm Calm 1.1 mph1.8 kmh 30.21 in1023.0 mb 0.00 in0.0 mm 0.00 in/hr0.0 mm/hr 0.00 in0.0 mm
08:19 AM 28.8°F-1.8°C 19.6°F-6.9°C 68% Calm Calm 0.4 mph0.6 kmh 30.21 in1023.0 mb 0.00 in0.0 mm 0.00 in/hr0.0 mm/hr 0.00 in0.0 mm
08:24 AM 29.3°F-1.5°C 20.1°F-6.6°C 68% 1.0 mph N1.6 kmh N 1.1 mph1.8 kmh 30.21 in1023.0 mb 0.00 in0.0 mm 0.00 in/hr0.0 mm/hr 0.00 in0.0 mm
08:29 AM 30.2°F-1.0°C 20.5°F-6.4°C 67% 0.2 mph NNE0.3 kmh NNE 1.1 mph1.8 kmh 30.21 in1023.0 mb 0.00 in0.0 mm 0.00 in/hr0.0 mm/hr 0.00 in0.0 mm
08:34 AM 31.1°F-0.5°C 21.4°F-5.9°C 67% 1.0 mph ENE1.6 kmh ENE 1.8 mph2.9 kmh 30.21 in1023.0 mb 0.00 in0.0 mm 0.00 in/hr0.0 mm/hr 0.00 in0.0 mm
08:39 AM 32.2°F0.1°C 22.5°F-5.3°C 67% 3.3 mph ENE5.3 kmh ENE 3.4 mph5.5 kmh 30.21 in1023.0 mb 0.00 in0.0 mm 0.00 in/hr0.0 mm/hr 0.00 in0.0 mm
08:44 AM 33.3°F0.7°C 23.5°F-4.7°C 67% 2.5 mph E4.0 kmh E 3.4 mph5.5 kmh 30.21 in1023.0 mb 0.00 in0.0 mm 0.00 in/hr0.0 mm/hr 0.00 in0.0 mm
08:49 AM 34.4°F1.3°C 24.1°F-4.4°C 66% 4.0 mph E6.4 kmh E 4.3 mph6.9 kmh 30.21 in1023.0 mb 0.00 in0.0 mm 0.00 in/hr0.0 mm/hr 0.00 in0.0 mm
08:54 AM 35.5°F1.9°C 24.8°F-4.0°C 65% 5.0 mph E8.0 kmh E 5.4 mph8.7 kmh 30.21 in1023.0 mb 0.00 in0.0 mm 0.00 in/hr0.0 mm/hr 0.00 in0.0 mm
08:59 AM 36.2°F2.3°C 25.2°F-3.8°C 64% 4.0 mph NE6.4 kmh NE 5.4 mph8.7 kmh 30.21 in1023.0 mb 0.00 in0.0 mm 0.00 in/hr0.0 mm/hr 0.00 in0.0 mm
09:04 AM 36.9°F2.7°C 25.5°F-3.6°C 63% 2.3 mph E3.7 kmh E 5.4 mph8.7 kmh 30.21 in1023.0 mb 0.00 in0.0 mm 0.00 in/hr0.0 mm/hr 0.00 in0.0 mm
09:09 AM 37.4°F3.0°C 25.6°F-3.6°C 62% 3.5 mph E5.6 kmh E 5.4 mph8.7 kmh 30.21 in1023.0 mb 0.00 in0.0 mm 0.00 in/hr0.0 mm/hr 0.00 in0.0 mm
09:14 AM 37.8°F3.2°C 26.3°F-3.2°C 63% 3.7 mph E6.0 kmh E 4.0 mph6.4 kmh 30.21 in1023.0 mb 0.00 in0.0 mm 0.00 in/hr0.0 mm/hr 0.00 in0.0 mm
09:19 AM 38.2°F3.4°C 26.3°F-3.2°C 62% 3.0 mph E4.8 kmh E 4.9 mph7.9 kmh 30.21 in1023.0 mb 0.00 in0.0 mm 0.00 in/hr0.0 mm/hr 0.00 in0.0 mm
09:24 AM 38.9°F3.8°C 26.6°F-3.0°C 61% 3.5 mph E5.6 kmh E 4.9 mph7.9 kmh 30.21 in1023.0 mb 0.00 in0.0 mm 0.00 in/hr0.0 mm/hr 0.00 in0.0 mm
09:29 AM 39.6°F4.2°C 26.8°F-2.9°C 60% 3.5 mph E5.6 kmh E 4.3 mph6.9 kmh 30.20 in1022.7 mb 0.00 in0.0 mm 0.00 in/hr0.0 mm/hr 0.00 in0.0 mm
09:34 AM 40.5°F4.7°C 27.3°F-2.6°C 59% 3.3 mph E5.3 kmh E 4.5 mph7.2 kmh 30.20 in1022.7 mb 0.00 in0.0 mm 0.00 in/hr0.0 mm/hr 0.00 in0.0 mm
09:39 AM 41.2°F5.1°C 27.6°F-2.4°C 58% 4.4 mph E7.1 kmh E 5.4 mph8.7 kmh 30.20 in1022.7 mb 0.00 in0.0 mm 0.00 in/hr0.0 mm/hr 0.00 in0.0 mm
09:44 AM 42.1°F5.6°C 27.5°F-2.5°C 56% 3.7 mph E6.0 kmh E 5.4 mph8.7 kmh 30.20 in1022.7 mb 0.00 in0.0 mm 0.00 in/hr0.0 mm/hr 0.00 in0.0 mm
09:49 AM 42.8°F6.0°C 27.7°F-2.4°C 55% 4.3 mph E6.9 kmh E 5.4 mph8.7 kmh 30.20 in1022.7 mb 0.00 in0.0 mm 0.00 in/hr0.0 mm/hr 0.00 in0.0 mm
09:54 AM 43.2°F6.2°C 27.6°F-2.4°C 54% 5.1 mph ENE8.2 kmh ENE 6.3 mph10.1 kmh 30.20 in1022.7 mb 0.00 in0.0 mm 0.00 in/hr0.0 mm/hr 0.00 in0.0 mm
09:59 AM 43.6°F6.4°C 27.6°F-2.4°C 53% 4.9 mph E7.9 kmh E 6.3 mph10.1 kmh 30.20 in1022.7 mb 0.00 in0.0 mm 0.00 in/hr0.0 mm/hr 0.00 in0.0 mm
10:04 AM 44.3°F6.8°C 28.6°F-1.9°C 54% 1.5 mph E2.4 kmh E 6.3 mph10.1 kmh 30.20 in1022.7 mb 0.00 in0.0 mm 0.00 in/hr0.0 mm/hr 0.00 in0.0 mm
10:09 AM 45.0°F7.2°C 29.4°F-1.4°C 54% 1.4 mph NE2.3 kmh NE 5.4 mph8.7 kmh 30.20 in1022.7 mb 0.00 in0.0 mm 0.00 in/hr0.0 mm/hr 0.00 in0.0 mm
10:14 AM 46.1°F7.8°C 29.8°F-1.2°C 53% 4.3 mph ENE6.9 kmh ENE 4.7 mph7.6 kmh 30.20 in1022.7 mb 0.00 in0.0 mm 0.00 in/hr0.0 mm/hr 0.00 in0.0 mm
10:19 AM 46.8°F8.2°C 30.1°F-1.1°C 52% 2.8 mph E4.5 kmh E 4.7 mph7.6 kmh 30.20 in1022.7 mb 0.00 in0.0 mm 0.00 in/hr0.0 mm/hr 0.00 in0.0 mm
10:24 AM 47.3°F8.5°C 30.1°F-1.1°C 51% 1.0 mph N1.6 kmh N 4.5 mph7.2 kmh 30.20 in1022.7 mb 0.00 in0.0 mm 0.00 in/hr0.0 mm/hr 0.00 in0.0 mm
10:29 AM 47.9°F8.8°C 30.1°F-1.1°C 50% 1.7 mph ENE2.7 kmh ENE 3.4 mph5.5 kmh 30.20 in1022.7 mb 0.00 in0.0 mm 0.00 in/hr0.0 mm/hr 0.00 in0.0 mm
10:34 AM 48.6°F9.2°C 30.3°F-0.9°C 49% 2.2 mph ENE3.5 kmh ENE 3.4 mph5.5 kmh 30.20 in1022.7 mb 0.00 in0.0 mm 0.00 in/hr0.0 mm/hr 0.00 in0.0 mm
10:39 AM 49.5°F9.7°C 31.2°F-0.4°C 49% 2.3 mph ENE3.7 kmh ENE 3.1 mph5.0 kmh 30.20 in1022.7 mb 0.00 in0.0 mm 0.00 in/hr0.0 mm/hr 0.00 in0.0 mm
10:44 AM 50.4°F10.2°C 31.4°F-0.3°C 48% 1.3 mph E2.1 kmh E 2.9 mph4.7 kmh 30.20 in1022.7 mb 0.00 in0.0 mm 0.00 in/hr0.0 mm/hr 0.00 in0.0 mm
10:49 AM 51.3°F10.7°C 32.2°F0.1°C 48% 1.0 mph NE1.6 kmh NE 1.8 mph2.9 kmh 30.19 in1022.4 mb 0.00 in0.0 mm 0.00 in/hr0.0 mm/hr 0.00 in0.0 mm
10:54 AM 52.2°F11.2°C 32.0°F0.0°C 46% 0.8 mph NE1.3 kmh NE 2.2 mph3.5 kmh 30.19 in1022.4 mb 0.00 in0.0 mm 0.00 in/hr0.0 mm/hr 0.00 in0.0 mm
11:00 AM 52.9°F11.6°C 32.6°F0.3°C 46% 1.4 mph N2.3 kmh N 2.5 mph4.0 kmh 30.19 in1022.4 mb 0.00 in0.0 mm 0.00 in/hr0.0 mm/hr 0.00 in0.0 mm
11:05 AM 53.6°F12.0°C 32.7°F0.4°C 45% 0.4 mph NNW0.6 kmh NNW 2.5 mph4.0 kmh 30.19 in1022.4 mb 0.00 in0.0 mm 0.00 in/hr0.0 mm/hr 0.00 in0.0 mm
11:10 AM 54.4°F12.4°C 33.3°F0.7°C 45% 0.7 mph E1.1 kmh E 2.2 mph3.5 kmh 30.19 in1022.4 mb 0.00 in0.0 mm 0.00 in/hr0.0 mm/hr 0.00 in0.0 mm
11:15 AM 55.6°F13.1°C 34.5°F1.4°C 45% Calm Calm 2.2 mph3.5 kmh 30.19 in1022.4 mb 0.00 in0.0 mm 0.00 in/hr0.0 mm/hr 0.00 in0.0 mm
11:19 AM 56.3°F13.5°C 34.6°F1.4°C 44% 1.0 mph SE1.6 kmh SE 2.2 mph3.5 kmh 30.19 in1022.4 mb 0.00 in0.0 mm 0.00 in/hr0.0 mm/hr 0.00 in0.0 mm
11:24 AM 57.2°F14.0°C 34.8°F1.6°C 43% 1.2 mph ESE1.9 kmh ESE 2.7 mph4.3 kmh 30.18 in1022.0 mb 0.00 in0.0 mm 0.00 in/hr0.0 mm/hr 0.00 in0.0 mm
11:29 AM 58.1°F14.5°C 34.5°F1.4°C 41% 1.7 mph ENE2.7 kmh ENE 2.9 mph4.7 kmh 30.18 in1022.0 mb 0.00 in0.0 mm 0.00 in/hr0.0 mm/hr 0.00 in0.0 mm
11:34 AM 58.7°F14.8°C 35.0°F1.7°C 41% 1.5 mph E2.4 kmh E 3.4 mph5.5 kmh 30.18 in1022.0 mb 0.00 in0.0 mm 0.00 in/hr0.0 mm/hr 0.00 in0.0 mm
11:39 AM 59.4°F15.2°C 35.1°F1.7°C 40% 1.4 mph E2.3 kmh E 3.4 mph5.5 kmh 30.17 in1021.7 mb 0.00 in0.0 mm 0.00 in/hr0.0 mm/hr 0.00 in0.0 mm
11:44 AM 60.5°F15.8°C 35.3°F1.8°C 39% 1.1 mph E1.8 kmh E 2.0 mph3.2 kmh 30.18 in1022.0 mb 0.00 in0.0 mm 0.00 in/hr0.0 mm/hr 0.00 in0.0 mm
11:49 AM 61.4°F16.3°C 35.4°F1.9°C 38% 1.8 mph SE2.9 kmh SE 2.2 mph3.5 kmh 30.17 in1021.7 mb 0.00 in0.0 mm 0.00 in/hr0.0 mm/hr 0.00 in0.0 mm
11:54 AM 62.3°F16.8°C 36.2°F2.3°C 38% 1.1 mph E1.8 kmh E 2.2 mph3.5 kmh 30.17 in1021.7 mb 0.00 in0.0 mm 0.00 in/hr0.0 mm/hr 0.00 in0.0 mm
12:00 PM 63.0°F17.2°C 35.5°F1.9°C 36% 1.3 mph NE2.1 kmh NE 2.9 mph4.7 kmh 30.17 in1021.7 mb 0.00 in0.0 mm 0.00 in/hr0.0 mm/hr 0.00 in0.0 mm
12:05 PM 63.4°F17.4°C 35.7°F2.1°C 36% 0.4 mph SE0.6 kmh SE 2.9 mph4.7 kmh 30.17 in1021.7 mb 0.00 in0.0 mm 0.00 in/hr0.0 mm/hr 0.00 in0.0 mm
12:10 PM 63.9°F17.7°C 34.8°F1.6°C 34% 2.5 mph NE4.0 kmh NE 3.8 mph6.1 kmh 30.16 in1021.3 mb 0.00 in0.0 mm 0.00 in/hr0.0 mm/hr 0.00 in0.0 mm
12:15 PM 64.1°F17.8°C 34.2°F1.2°C 33% 0.6 mph ESE1.0 kmh ESE 4.9 mph7.9 kmh 30.16 in1021.3 mb 0.00 in0.0 mm 0.00 in/hr0.0 mm/hr 0.00 in0.0 mm
12:20 PM 64.3°F17.9°C 33.7°F0.9°C 32% 3.3 mph E5.3 kmh E 5.4 mph8.7 kmh 30.15 in1021.0 mb 0.00 in0.0 mm 0.00 in/hr0.0 mm/hr 0.00 in0.0 mm
12:25 PM 64.3°F17.9°C 32.9°F0.5°C 31% 3.3 mph NNE5.3 kmh NNE 5.4 mph8.7 kmh 30.15 in1021.0 mb 0.00 in0.0 mm 0.00 in/hr0.0 mm/hr 0.00 in0.0 mm
12:30 PM 64.4°F18.0°C 33.8°F1.0°C 32% 1.0 mph SSE1.6 kmh SSE 4.0 mph6.4 kmh 30.15 in1021.0 mb 0.00 in0.0 mm 0.00 in/hr0.0 mm/hr 0.00 in0.0 mm
12:35 PM 65.2°F18.4°C 34.5°F1.4°C 32% 3.6 mph NNE5.8 kmh NNE 4.7 mph7.6 kmh 30.14 in1020.7 mb 0.00 in0.0 mm 0.00 in/hr0.0 mm/hr 0.00 in0.0 mm
12:40 PM 65.5°F18.6°C 33.4°F0.8°C 30% 2.5 mph 4.0 kmh 5.6 mph9.0 kmh 30.14 in1020.7 mb 0.00 in0.0 mm 0.00 in/hr0.0 mm/hr 0.00 in0.0 mm
12:45 PM 66.1°F18.9°C 35.3°F1.8°C 32% 1.1 mph 1.8 kmh 5.6 mph9.0 kmh 30.14 in1020.7 mb 0.00 in0.0 mm 0.00 in/hr0.0 mm/hr 0.00 in0.0 mm
12:50 PM 65.9°F18.8°C 33.7°F0.9°C 30% 0.4 mph 0.6 kmh 3.8 mph6.1 kmh 30.14 in1020.7 mb 0.00 in0.0 mm 0.00 in/hr0.0 mm/hr 0.00 in0.0 mm
12:55 PM 66.2°F19.0°C 34.0°F1.1°C 30% 1.5 mph ENE2.4 kmh ENE 3.8 mph6.1 kmh 30.14 in1020.7 mb 0.00 in0.0 mm 0.00 in/hr0.0 mm/hr 0.00 in0.0 mm
01:00 PM 67.0°F19.4°C 34.6°F1.4°C 30% 2.6 mph ENE4.2 kmh ENE 4.0 mph6.4 kmh 30.14 in1020.7 mb 0.00 in0.0 mm 0.00 in/hr0.0 mm/hr 0.00 in0.0 mm
01:05 PM 67.7°F19.8°C 35.2°F1.8°C 30% 1.8 mph NE2.9 kmh NE 4.0 mph6.4 kmh 30.13 in1020.3 mb 0.00 in0.0 mm 0.00 in/hr0.0 mm/hr 0.00 in0.0 mm
01:10 PM 67.9°F19.9°C 34.3°F1.3°C 29% 3.5 mph E5.6 kmh E 6.0 mph9.7 kmh 30.13 in1020.3 mb 0.00 in0.0 mm 0.00 in/hr0.0 mm/hr 0.00 in0.0 mm
01:15 PM 68.0°F20.0°C 33.5°F0.8°C 28% 1.5 mph E2.4 kmh E 6.0 mph9.7 kmh 30.13 in1020.3 mb 0.00 in0.0 mm 0.00 in/hr0.0 mm/hr 0.00 in0.0 mm
01:20 PM 68.6°F20.3°C 33.9°F1.1°C 28% 5.0 mph N8.0 kmh N 6.0 mph9.7 kmh 30.12 in1020.0 mb 0.00 in0.0 mm 0.00 in/hr0.0 mm/hr 0.00 in0.0 mm
01:25 PM 68.6°F20.3°C 32.0°F0.0°C 26% 4.6 mph ENE7.4 kmh ENE 6.0 mph9.7 kmh 30.12 in1020.0 mb 0.00 in0.0 mm 0.00 in/hr0.0 mm/hr 0.00 in0.0 mm
01:30 PM 68.9°F20.5°C 33.3°F0.7°C 27% 2.8 mph E4.5 kmh E 5.6 mph9.0 kmh 30.12 in1020.0 mb 0.00 in0.0 mm 0.00 in/hr0.0 mm/hr 0.00 in0.0 mm
01:35 PM 68.9°F20.5°C 32.3°F0.2°C 26% 4.3 mph 6.9 kmh 5.1 mph8.2 kmh 30.12 in1020.0 mb 0.00 in0.0 mm 0.00 in/hr0.0 mm/hr 0.00 in0.0 mm
01:40 PM 68.9°F20.5°C 31.3°F-0.4°C 25% 5.2 mph 8.4 kmh 6.3 mph10.1 kmh 30.12 in1020.0 mb 0.00 in0.0 mm 0.00 in/hr0.0 mm/hr 0.00 in0.0 mm
01:45 PM 69.1°F20.6°C 31.4°F-0.3°C 25% 1.1 mph ESE1.8 kmh ESE 6.3 mph10.1 kmh 30.11 in1019.6 mb 0.00 in0.0 mm 0.00 in/hr0.0 mm/hr 0.00 in0.0 mm
01:50 PM 69.7°F20.9°C 32.9°F0.5°C 26% 0.2 mph NW0.3 kmh NW 5.6 mph9.0 kmh 30.11 in1019.6 mb 0.00 in0.0 mm 0.00 in/hr0.0 mm/hr 0.00 in0.0 mm
01:55 PM 70.4°F21.3°C 33.5°F0.8°C 26% 2.5 mph SE4.0 kmh SE 3.8 mph6.1 kmh 30.11 in1019.6 mb 0.00 in0.0 mm 0.00 in/hr0.0 mm/hr 0.00 in0.0 mm
02:00 PM 71.1°F21.7°C 33.1°F0.6°C 25% 2.2 mph E3.5 kmh E 3.8 mph6.1 kmh 30.11 in1019.6 mb 0.00 in0.0 mm 0.00 in/hr0.0 mm/hr 0.00 in0.0 mm
02:05 PM 71.6°F22.0°C 34.6°F1.4°C 26% 2.0 mph N3.2 kmh N 3.8 mph6.1 kmh 30.10 in1019.3 mb 0.00 in0.0 mm 0.00 in/hr0.0 mm/hr 0.00 in0.0 mm
02:10 PM 71.6°F22.0°C 32.6°F0.3°C 24% 2.3 mph NNE3.7 kmh NNE 2.9 mph4.7 kmh 30.10 in1019.3 mb 0.00 in0.0 mm 0.00 in/hr0.0 mm/hr 0.00 in0.0 mm
02:15 PM 71.5°F21.9°C 32.4°F0.2°C 24% 1.7 mph NE2.7 kmh NE 2.7 mph4.3 kmh 30.10 in1019.3 mb 0.00 in0.0 mm 0.00 in/hr0.0 mm/hr 0.00 in0.0 mm
02:20 PM 71.8°F22.1°C 32.7°F0.4°C 24% 1.4 mph SE2.3 kmh SE 2.5 mph4.0 kmh 30.09 in1019.0 mb 0.00 in0.0 mm 0.00 in/hr0.0 mm/hr 0.00 in0.0 mm
02:25 PM 72.5°F22.5°C 34.4°F1.3°C 25% 1.8 mph ESE2.9 kmh ESE 4.3 mph6.9 kmh 30.09 in1019.0 mb 0.00 in0.0 mm 0.00 in/hr0.0 mm/hr 0.00 in0.0 mm
02:30 PM 73.1°F22.8°C 33.8°F1.0°C 24% 1.9 mph ESE3.1 kmh ESE 4.5 mph7.2 kmh 30.09 in1019.0 mb 0.00 in0.0 mm 0.00 in/hr0.0 mm/hr 0.00 in0.0 mm
02:35 PM 73.3°F22.9°C 33.9°F1.1°C 24% 2.6 mph N4.2 kmh N 4.5 mph7.2 kmh 30.09 in1019.0 mb 0.00 in0.0 mm 0.00 in/hr0.0 mm/hr 0.00 in0.0 mm
02:40 PM 72.7°F22.6°C 32.5°F0.3°C 23% 0.3 mph NE0.5 kmh NE 3.6 mph5.8 kmh 30.08 in1018.6 mb 0.00 in0.0 mm 0.00 in/hr0.0 mm/hr 0.00 in0.0 mm
02:45 PM 71.8°F22.1°C 30.7°F-0.7°C 22% 4.6 mph NE7.4 kmh NE 5.1 mph8.2 kmh 30.08 in1018.6 mb 0.00 in0.0 mm 0.00 in/hr0.0 mm/hr 0.00 in0.0 mm
02:50 PM 71.1°F21.7°C 30.1°F-1.1°C 22% 2.0 mph NE3.2 kmh NE 5.1 mph8.2 kmh 30.08 in1018.6 mb 0.00 in0.0 mm 0.00 in/hr0.0 mm/hr 0.00 in0.0 mm
02:55 PM 71.6°F22.0°C 31.5°F-0.3°C 23% 1.8 mph E2.9 kmh E 4.0 mph6.4 kmh 30.08 in1018.6 mb 0.00 in0.0 mm 0.00 in/hr0.0 mm/hr 0.00 in0.0 mm
03:00 PM 72.2°F22.3°C 32.0°F0.0°C 23% 0.9 mph E1.4 kmh E 4.0 mph6.4 kmh 30.08 in1018.6 mb 0.00 in0.0 mm 0.00 in/hr0.0 mm/hr 0.00 in0.0 mm
03:06 PM 72.0°F22.2°C 30.8°F-0.7°C 22% 4.0 mph ENE6.4 kmh ENE 4.3 mph6.9 kmh 30.08 in1018.6 mb 0.00 in0.0 mm 0.00 in/hr0.0 mm/hr 0.00 in0.0 mm
03:10 PM 71.8°F22.1°C 30.7°F-0.7°C 22% 4.3 mph E6.9 kmh E 4.7 mph7.6 kmh 30.08 in1018.6 mb 0.00 in0.0 mm 0.00 in/hr0.0 mm/hr 0.00 in0.0 mm
03:15 PM 71.6°F22.0°C 30.5°F-0.8°C 22% 2.2 mph NE3.5 kmh NE 4.7 mph7.6 kmh 30.07 in1018.3 mb 0.00 in0.0 mm 0.00 in/hr0.0 mm/hr 0.00 in0.0 mm
03:20 PM 71.3°F21.8°C 30.3°F-0.9°C 22% 3.7 mph ENE6.0 kmh ENE 4.3 mph6.9 kmh 30.07 in1018.3 mb 0.00 in0.0 mm 0.00 in/hr0.0 mm/hr 0.00 in0.0 mm
03:25 PM 71.1°F21.7°C 30.1°F-1.1°C 22% 4.5 mph NE7.2 kmh NE 4.7 mph7.6 kmh 30.07 in1018.3 mb 0.00 in0.0 mm 0.00 in/hr0.0 mm/hr 0.00 in0.0 mm
03:30 PM 70.9°F21.6°C 29.9°F-1.2°C 22% 5.1 mph E8.2 kmh E 5.8 mph9.3 kmh 30.07 in1018.3 mb 0.00 in0.0 mm 0.00 in/hr0.0 mm/hr 0.00 in0.0 mm
03:35 PM 70.9°F21.6°C 29.9°F-1.2°C 22% 3.2 mph E5.1 kmh E 5.8 mph9.3 kmh 30.07 in1018.3 mb 0.00 in0.0 mm 0.00 in/hr0.0 mm/hr 0.00 in0.0 mm
03:40 PM 71.3°F21.8°C 30.3°F-0.9°C 22% 1.6 mph NE2.6 kmh NE 3.6 mph5.8 kmh 30.07 in1018.3 mb 0.00 in0.0 mm 0.00 in/hr0.0 mm/hr 0.00 in0.0 mm
03:45 PM 71.5°F21.9°C 30.3°F-0.9°C 22% 5.5 mph NE8.9 kmh NE 5.6 mph9.0 kmh 30.06 in1017.9 mb 0.00 in0.0 mm 0.00 in/hr0.0 mm/hr 0.00 in0.0 mm
03:50 PM 70.9°F21.6°C 29.9°F-1.2°C 22% 3.7 mph NE6.0 kmh NE 5.6 mph9.0 kmh 30.06 in1017.9 mb 0.00 in0.0 mm 0.00 in/hr0.0 mm/hr 0.00 in0.0 mm
03:55 PM 70.7°F21.5°C 29.8°F-1.2°C 22% 1.5 mph NE2.4 kmh NE 4.7 mph7.6 kmh 30.06 in1017.9 mb 0.00 in0.0 mm 0.00 in/hr0.0 mm/hr 0.00 in0.0 mm
04:01 PM 70.7°F21.5°C 29.8°F-1.2°C 22% 1.3 mph ENE2.1 kmh ENE 3.8 mph6.1 kmh 30.06 in1017.9 mb 0.00 in0.0 mm 0.00 in/hr0.0 mm/hr 0.00 in0.0 mm
04:06 PM 70.9°F21.6°C 29.9°F-1.2°C 22% 2.7 mph ENE4.3 kmh ENE 3.4 mph5.5 kmh 30.06 in1017.9 mb 0.00 in0.0 mm 0.00 in/hr0.0 mm/hr 0.00 in0.0 mm
04:11 PM 70.9°F21.6°C 29.9°F-1.2°C 22% 1.9 mph ENE3.1 kmh ENE 4.9 mph7.9 kmh 30.06 in1017.9 mb 0.00 in0.0 mm 0.00 in/hr0.0 mm/hr 0.00 in0.0 mm
04:16 PM 71.1°F21.7°C 30.1°F-1.1°C 22% 2.3 mph NE3.7 kmh NE 4.9 mph7.9 kmh 30.06 in1017.9 mb 0.00 in0.0 mm 0.00 in/hr0.0 mm/hr 0.00 in0.0 mm
04:21 PM 71.3°F21.8°C 30.3°F-0.9°C 22% 1.6 mph ENE2.6 kmh ENE 3.1 mph5.0 kmh 30.06 in1017.9 mb 0.00 in0.0 mm 0.00 in/hr0.0 mm/hr 0.00 in0.0 mm
04:26 PM 71.3°F21.8°C 30.3°F-0.9°C 22% 0.2 mph ENE0.3 kmh ENE 3.1 mph5.0 kmh 30.06 in1017.9 mb 0.00 in0.0 mm 0.00 in/hr0.0 mm/hr 0.00 in0.0 mm
04:31 PM 71.5°F21.9°C 30.3°F-0.9°C 22% 1.0 mph E1.6 kmh E 2.0 mph3.2 kmh 30.05 in1017.6 mb 0.00 in0.0 mm 0.00 in/hr0.0 mm/hr 0.00 in0.0 mm
04:36 PM 71.8°F22.1°C 30.7°F-0.7°C 22% 0.3 mph E0.5 kmh E 1.3 mph2.1 kmh 30.05 in1017.6 mb 0.00 in0.0 mm 0.00 in/hr0.0 mm/hr 0.00 in0.0 mm
04:41 PM 72.0°F22.2°C 30.8°F-0.7°C 22% 0.8 mph E1.3 kmh E 1.1 mph1.8 kmh 30.05 in1017.6 mb 0.00 in0.0 mm 0.00 in/hr0.0 mm/hr 0.00 in0.0 mm
04:46 PM 71.6°F22.0°C 29.4°F-1.4°C 21% 2.5 mph ENE4.0 kmh ENE 2.7 mph4.3 kmh 30.05 in1017.6 mb 0.00 in0.0 mm 0.00 in/hr0.0 mm/hr 0.00 in0.0 mm
04:50 PM 71.3°F21.8°C 29.2°F-1.6°C 21% 0.4 mph ENE0.6 kmh ENE 2.7 mph4.3 kmh 30.05 in1017.6 mb 0.00 in0.0 mm 0.00 in/hr0.0 mm/hr 0.00 in0.0 mm
04:55 PM 70.9°F21.6°C 28.9°F-1.7°C 21% 0.6 mph E1.0 kmh E 2.2 mph3.5 kmh 30.05 in1017.6 mb 0.00 in0.0 mm 0.00 in/hr0.0 mm/hr 0.00 in0.0 mm
05:01 PM 70.6°F21.4°C 29.6°F-1.3°C 22% 0.9 mph ESE1.4 kmh ESE 1.8 mph2.9 kmh 30.05 in1017.6 mb 0.00 in0.0 mm 0.00 in/hr0.0 mm/hr 0.00 in0.0 mm
05:06 PM 70.2°F21.2°C 29.4°F-1.4°C 22% 0.6 mph ESE1.0 kmh ESE 1.8 mph2.9 kmh 30.05 in1017.6 mb 0.00 in0.0 mm 0.00 in/hr0.0 mm/hr 0.00 in0.0 mm
05:11 PM 69.5°F20.8°C 28.7°F-1.8°C 22% 1.0 mph S1.6 kmh S 1.3 mph2.1 kmh 30.05 in1017.6 mb 0.00 in0.0 mm 0.00 in/hr0.0 mm/hr 0.00 in0.0 mm
05:16 PM 68.8°F20.4°C 28.2°F-2.1°C 22% 0.6 mph SW1.0 kmh SW 1.3 mph2.1 kmh 30.04 in1017.3 mb 0.00 in0.0 mm 0.00 in/hr0.0 mm/hr 0.00 in0.0 mm
05:21 PM 68.2°F20.1°C 27.7°F-2.4°C 22% 0.2 mph SSW0.3 kmh SSW 0.9 mph1.4 kmh 30.04 in1017.3 mb 0.00 in0.0 mm 0.00 in/hr0.0 mm/hr 0.00 in0.0 mm
05:26 PM 67.7°F19.8°C 28.3°F-2.1°C 23% Calm Calm 0.4 mph0.6 kmh 30.04 in1017.3 mb 0.00 in0.0 mm 0.00 in/hr0.0 mm/hr 0.00 in0.0 mm
05:31 PM 66.8°F19.3°C 27.5°F-2.5°C 23% Calm Calm -- 30.04 in1017.3 mb 0.00 in0.0 mm 0.00 in/hr0.0 mm/hr 0.00 in0.0 mm
05:36 PM 66.2°F19.0°C 27.0°F-2.8°C 23% 0.6 mph S1.0 kmh S 0.9 mph1.4 kmh 30.04 in1017.3 mb 0.00 in0.0 mm 0.00 in/hr0.0 mm/hr 0.00 in0.0 mm
05:41 PM 65.7°F18.7°C 26.6°F-3.0°C 23% 0.6 mph S1.0 kmh S 1.1 mph1.8 kmh 30.04 in1017.3 mb 0.00 in0.0 mm 0.00 in/hr0.0 mm/hr 0.00 in0.0 mm
05:46 PM 65.2°F18.4°C 26.1°F-3.3°C 23% 0.4 mph S0.6 kmh S 1.3 mph2.1 kmh 30.04 in1017.3 mb 0.00 in0.0 mm 0.00 in/hr0.0 mm/hr 0.00 in0.0 mm
05:51 PM 64.3°F17.9°C 26.3°F-3.2°C 24% 0.4 mph SSE0.6 kmh SSE 1.3 mph2.1 kmh 30.04 in1017.3 mb 0.00 in0.0 mm 0.00 in/hr0.0 mm/hr 0.00 in0.0 mm
05:56 PM 63.0°F17.2°C 25.3°F-3.7°C 24% 0.4 mph NE0.6 kmh NE 0.7 mph1.1 kmh 30.04 in1017.3 mb 0.00 in0.0 mm 0.00 in/hr0.0 mm/hr 0.00 in0.0 mm
06:01 PM 61.9°F16.6°C 23.4°F-4.8°C 23% 0.7 mph ENE1.1 kmh ENE 1.8 mph2.9 kmh 30.04 in1017.3 mb 0.00 in0.0 mm 0.00 in/hr0.0 mm/hr 0.00 in0.0 mm
06:06 PM 60.8°F16.0°C 23.4°F-4.8°C 24% 0.2 mph WSW0.3 kmh WSW 1.8 mph2.9 kmh 30.04 in1017.3 mb 0.00 in0.0 mm 0.00 in/hr0.0 mm/hr 0.00 in0.0 mm
06:11 PM 59.9°F15.5°C 22.7°F-5.2°C 24% 1.0 mph N1.6 kmh N 1.3 mph2.1 kmh 30.04 in1017.3 mb 0.00 in0.0 mm 0.00 in/hr0.0 mm/hr 0.00 in0.0 mm
06:16 PM 58.9°F14.9°C 22.7°F-5.2°C 25% 0.8 mph NE1.3 kmh NE 1.3 mph2.1 kmh 30.04 in1017.3 mb 0.00 in0.0 mm 0.00 in/hr0.0 mm/hr 0.00 in0.0 mm
06:21 PM 58.7°F14.8°C 22.6°F-5.2°C 25% 0.4 mph NNE0.6 kmh NNE 1.1 mph1.8 kmh 30.04 in1017.3 mb 0.00 in0.0 mm 0.00 in/hr0.0 mm/hr 0.00 in0.0 mm
06:26 PM 58.3°F14.6°C 22.2°F-5.4°C 25% 1.5 mph N2.4 kmh N 2.0 mph3.2 kmh 30.04 in1017.3 mb 0.00 in0.0 mm 0.00 in/hr0.0 mm/hr 0.00 in0.0 mm
06:31 PM 58.0°F14.4°C 22.9°F-5.1°C 26% 1.7 mph N2.7 kmh N 3.4 mph5.5 kmh 30.04 in1017.3 mb 0.00 in0.0 mm 0.00 in/hr0.0 mm/hr 0.00 in0.0 mm
06:36 PM 56.7°F13.7°C 20.9°F-6.2°C 25% 3.8 mph 6.1 kmh 4.0 mph6.4 kmh 30.04 in1017.3 mb 0.00 in0.0 mm 0.00 in/hr0.0 mm/hr 0.00 in0.0 mm
06:41 PM 54.9°F12.7°C 21.3°F-5.9°C 27% 2.2 mph NNE3.5 kmh NNE 4.0 mph6.4 kmh 30.04 in1017.3 mb 0.00 in0.0 mm 0.00 in/hr0.0 mm/hr 0.00 in0.0 mm
06:46 PM 53.8°F12.1°C 20.4°F-6.4°C 27% 1.6 mph 2.6 kmh 3.4 mph5.5 kmh 30.04 in1017.3 mb 0.00 in0.0 mm 0.00 in/hr0.0 mm/hr 0.00 in0.0 mm
06:51 PM 53.5°F11.9°C 21.0°F-6.1°C 28% 4.9 mph N7.9 kmh N 5.1 mph8.2 kmh 30.04 in1017.3 mb 0.00 in0.0 mm 0.00 in/hr0.0 mm/hr 0.00 in0.0 mm
06:56 PM 52.9°F11.6°C 20.5°F-6.4°C 28% 4.8 mph NE7.7 kmh NE 5.1 mph8.2 kmh 30.05 in1017.6 mb 0.00 in0.0 mm 0.00 in/hr0.0 mm/hr 0.00 in0.0 mm
07:02 PM 52.0°F11.1°C 20.6°F-6.3°C 29% 4.4 mph N7.1 kmh N 5.4 mph8.7 kmh 30.04 in1017.3 mb 0.00 in0.0 mm 0.00 in/hr0.0 mm/hr 0.00 in0.0 mm
07:06 PM 51.5°F10.8°C 20.2°F-6.6°C 29% Calm Calm 5.4 mph8.7 kmh 30.04 in1017.3 mb 0.00 in0.0 mm 0.00 in/hr0.0 mm/hr 0.00 in0.0 mm
07:11 PM 50.9°F10.5°C 19.7°F-6.8°C 29% 0.4 mph NE0.6 kmh NE 4.0 mph6.4 kmh 30.04 in1017.3 mb 0.00 in0.0 mm 0.00 in/hr0.0 mm/hr 0.00 in0.0 mm
07:16 PM 50.8°F10.4°C 19.5°F-6.9°C 29% Calm Calm 0.4 mph0.6 kmh 30.04 in1017.3 mb 0.00 in0.0 mm 0.00 in/hr0.0 mm/hr 0.00 in0.0 mm
07:21 PM 50.2°F10.1°C 19.1°F-7.2°C 29% Calm Calm 0.7 mph1.1 kmh 30.04 in1017.3 mb 0.00 in0.0 mm 0.00 in/hr0.0 mm/hr 0.00 in0.0 mm
07:26 PM 49.5°F9.7°C 18.5°F-7.5°C 29% 0.4 mph WNW0.6 kmh WNW 0.7 mph1.1 kmh 30.04 in1017.3 mb 0.00 in0.0 mm 0.00 in/hr0.0 mm/hr 0.00 in0.0 mm
07:31 PM 48.6°F9.2°C 17.7°F-7.9°C 29% 3.9 mph 6.3 kmh 4.0 mph6.4 kmh 30.04 in1017.3 mb 0.00 in0.0 mm 0.00 in/hr0.0 mm/hr 0.00 in0.0 mm
07:36 PM 48.2°F9.0°C 19.0°F-7.2°C 31% 4.7 mph NNE7.6 kmh NNE 4.9 mph7.9 kmh 30.04 in1017.3 mb 0.00 in0.0 mm 0.00 in/hr0.0 mm/hr 0.00 in0.0 mm
07:41 PM 48.2°F9.0°C 19.7°F-6.8°C 32% 3.6 mph 5.8 kmh 4.9 mph7.9 kmh 30.04 in1017.3 mb 0.00 in0.0 mm 0.00 in/hr0.0 mm/hr 0.00 in0.0 mm
07:46 PM 48.1°F8.9°C 18.9°F-7.3°C 31% 2.5 mph 4.0 kmh 4.9 mph7.9 kmh 30.04 in1017.3 mb 0.00 in0.0 mm 0.00 in/hr0.0 mm/hr 0.00 in0.0 mm
07:51 PM 47.9°F8.8°C 19.4°F-7.0°C 32% 0.9 mph 1.4 kmh 2.9 mph4.7 kmh 30.04 in1017.3 mb 0.00 in0.0 mm 0.00 in/hr0.0 mm/hr 0.00 in0.0 mm
07:56 PM 47.5°F8.6°C 19.1°F-7.2°C 32% Calm Calm 2.0 mph3.2 kmh 30.04 in1017.3 mb 0.00 in0.0 mm 0.00 in/hr0.0 mm/hr 0.00 in0.0 mm
08:02 PM 47.0°F8.3°C 18.5°F-7.5°C 32% 0.9 mph SW1.4 kmh SW 2.0 mph3.2 kmh 30.04 in1017.3 mb 0.00 in0.0 mm 0.00 in/hr0.0 mm/hr 0.00 in0.0 mm
08:07 PM 46.3°F7.9°C 17.9°F-7.8°C 32% 0.8 mph NNW1.3 kmh NNW 1.6 mph2.6 kmh 30.04 in1017.3 mb 0.00 in0.0 mm 0.00 in/hr0.0 mm/hr 0.00 in0.0 mm
08:12 PM 45.2°F7.3°C 16.9°F-8.4°C 32% 1.7 mph NNW2.7 kmh NNW 2.2 mph3.5 kmh 30.03 in1016.9 mb 0.00 in0.0 mm 0.00 in/hr0.0 mm/hr 0.00 in0.0 mm
08:17 PM 44.3°F6.8°C 16.8°F-8.4°C 33% 0.2 mph NNW0.3 kmh NNW 2.2 mph3.5 kmh 30.03 in1016.9 mb 0.00 in0.0 mm 0.00 in/hr0.0 mm/hr 0.00 in0.0 mm
08:22 PM 43.7°F6.5°C 17.0°F-8.3°C 34% 0.4 mph 0.6 kmh 1.1 mph1.8 kmh 30.03 in1016.9 mb 0.00 in0.0 mm 0.00 in/hr0.0 mm/hr 0.00 in0.0 mm
08:27 PM 43.9°F6.6°C 17.1°F-8.3°C 34% 3.2 mph 5.1 kmh 3.4 mph5.5 kmh 30.03 in1016.9 mb 0.00 in0.0 mm 0.00 in/hr0.0 mm/hr 0.00 in0.0 mm
08:32 PM 44.5°F6.9°C 17.7°F-7.9°C 34% 3.7 mph N6.0 kmh N 4.0 mph6.4 kmh 30.03 in1016.9 mb 0.00 in0.0 mm 0.00 in/hr0.0 mm/hr 0.00 in0.0 mm
08:37 PM 45.0°F7.2°C 18.1°F-7.7°C 34% 1.0 mph 1.6 kmh 4.0 mph6.4 kmh 30.03 in1016.9 mb 0.00 in0.0 mm 0.00 in/hr0.0 mm/hr 0.00 in0.0 mm
08:42 PM 44.8°F7.1°C 17.3°F-8.2°C 33% 0.4 mph NW0.6 kmh NW 2.5 mph4.0 kmh 30.03 in1016.9 mb 0.00 in0.0 mm 0.00 in/hr0.0 mm/hr 0.00 in0.0 mm
08:47 PM 44.3°F6.8°C 16.8°F-8.4°C 33% 0.2 mph 0.3 kmh 2.5 mph4.0 kmh 30.03 in1016.9 mb 0.00 in0.0 mm 0.00 in/hr0.0 mm/hr 0.00 in0.0 mm
08:52 PM 43.6°F6.4°C 16.8°F-8.4°C 34% Calm Calm 2.5 mph4.0 kmh 30.03 in1016.9 mb 0.00 in0.0 mm 0.00 in/hr0.0 mm/hr 0.00 in0.0 mm
08:57 PM 42.8°F6.0°C 16.8°F-8.4°C 35% 2.7 mph S4.3 kmh S 2.9 mph4.7 kmh 30.03 in1016.9 mb 0.00 in0.0 mm 0.00 in/hr0.0 mm/hr 0.00 in0.0 mm
09:02 PM 42.3°F5.7°C 16.4°F-8.7°C 35% 0.8 mph SE1.3 kmh SE 2.9 mph4.7 kmh 30.03 in1016.9 mb 0.00 in0.0 mm 0.00 in/hr0.0 mm/hr 0.00 in0.0 mm
09:07 PM 41.8°F5.4°C 15.9°F-8.9°C 35% 4.6 mph N7.4 kmh N 4.9 mph7.9 kmh 30.03 in1016.9 mb 0.00 in0.0 mm 0.00 in/hr0.0 mm/hr 0.00 in0.0 mm
09:12 PM 41.4°F5.2°C 16.3°F-8.7°C 36% 0.2 mph NNE0.3 kmh NNE 4.9 mph7.9 kmh 30.03 in1016.9 mb 0.00 in0.0 mm 0.00 in/hr0.0 mm/hr 0.00 in0.0 mm
09:17 PM 41.6°F5.3°C 17.1°F-8.3°C 37% 0.2 mph NW0.3 kmh NW 3.6 mph5.8 kmh 30.03 in1016.9 mb 0.00 in0.0 mm 0.00 in/hr0.0 mm/hr 0.00 in0.0 mm
09:22 PM 41.9°F5.5°C 17.4°F-8.1°C 37% 1.9 mph NNW3.1 kmh NNW 2.9 mph4.7 kmh 30.03 in1016.9 mb 0.00 in0.0 mm 0.00 in/hr0.0 mm/hr 0.00 in0.0 mm
09:27 PM 41.9°F5.5°C 17.4°F-8.1°C 37% 0.3 mph S0.5 kmh S 2.9 mph4.7 kmh 30.03 in1016.9 mb 0.00 in0.0 mm 0.00 in/hr0.0 mm/hr 0.00 in0.0 mm
09:32 PM 41.8°F5.4°C 17.2°F-8.2°C 37% 0.3 mph NW0.5 kmh NW 2.5 mph4.0 kmh 30.03 in1016.9 mb 0.00 in0.0 mm 0.00 in/hr0.0 mm/hr 0.00 in0.0 mm
09:37 PM 41.6°F5.3°C 16.4°F-8.7°C 36% 2.0 mph NNE3.2 kmh NNE 2.5 mph4.0 kmh 30.03 in1016.9 mb 0.00 in0.0 mm 0.00 in/hr0.0 mm/hr 0.00 in0.0 mm
09:42 PM 41.8°F5.4°C 17.2°F-8.2°C 37% Calm Calm 2.5 mph4.0 kmh 30.03 in1016.9 mb 0.00 in0.0 mm 0.00 in/hr0.0 mm/hr 0.00 in0.0 mm
09:47 PM 41.9°F5.5°C 17.4°F-8.1°C 37% 1.0 mph 1.6 kmh 1.8 mph2.9 kmh 30.03 in1016.9 mb 0.00 in0.0 mm 0.00 in/hr0.0 mm/hr 0.00 in0.0 mm
09:52 PM 42.1°F5.6°C 17.6°F-8.0°C 37% 0.8 mph NE1.3 kmh NE 4.0 mph6.4 kmh 30.03 in1016.9 mb 0.00 in0.0 mm 0.00 in/hr0.0 mm/hr 0.00 in0.0 mm
09:57 PM 41.9°F5.5°C 18.0°F-7.8°C 38% Calm Calm 4.0 mph6.4 kmh 30.03 in1016.9 mb 0.00 in0.0 mm 0.00 in/hr0.0 mm/hr 0.00 in0.0 mm
10:03 PM 41.8°F5.4°C 17.9°F-7.8°C 38% Calm Calm 0.9 mph1.4 kmh 30.03 in1016.9 mb 0.00 in0.0 mm 0.00 in/hr0.0 mm/hr 0.00 in0.0 mm
10:07 PM 41.4°F5.2°C 16.9°F-8.4°C 37% 1.0 mph NNE1.6 kmh NNE 1.8 mph2.9 kmh 30.03 in1016.9 mb 0.00 in0.0 mm 0.00 in/hr0.0 mm/hr 0.00 in0.0 mm
10:12 PM 40.7°F4.8°C 16.9°F-8.4°C 38% Calm Calm 1.8 mph2.9 kmh 30.02 in1016.6 mb 0.00 in0.0 mm 0.00 in/hr0.0 mm/hr 0.00 in0.0 mm
10:17 PM 40.9°F4.9°C 17.1°F-8.3°C 38% 1.8 mph N2.9 kmh N 2.5 mph4.0 kmh 30.02 in1016.6 mb 0.00 in0.0 mm 0.00 in/hr0.0 mm/hr 0.00 in0.0 mm
10:22 PM 41.2°F5.1°C 17.4°F-8.1°C 38% 1.8 mph 2.9 kmh 3.1 mph5.0 kmh 30.02 in1016.6 mb 0.00 in0.0 mm 0.00 in/hr0.0 mm/hr 0.00 in0.0 mm
10:27 PM 41.4°F5.2°C 17.6°F-8.0°C 38% 1.3 mph 2.1 kmh 3.1 mph5.0 kmh 30.02 in1016.6 mb 0.00 in0.0 mm 0.00 in/hr0.0 mm/hr 0.00 in0.0 mm
10:32 PM 41.4°F5.2°C 17.6°F-8.0°C 38% 0.6 mph NE1.0 kmh NE 2.5 mph4.0 kmh 30.02 in1016.6 mb 0.00 in0.0 mm 0.00 in/hr0.0 mm/hr 0.00 in0.0 mm
10:37 PM 41.4°F5.2°C 17.6°F-8.0°C 38% 0.8 mph 1.3 kmh 2.5 mph4.0 kmh 30.02 in1016.6 mb 0.00 in0.0 mm 0.00 in/hr0.0 mm/hr 0.00 in0.0 mm
10:42 PM 41.4°F5.2°C 18.2°F-7.7°C 39% 1.9 mph S3.1 kmh S 4.0 mph6.4 kmh 30.02 in1016.6 mb 0.00 in0.0 mm 0.00 in/hr0.0 mm/hr 0.00 in0.0 mm
10:47 PM 41.0°F5.0°C 17.9°F-7.8°C 39% 1.6 mph SSW2.6 kmh SSW 4.0 mph6.4 kmh 30.02 in1016.6 mb 0.00 in0.0 mm 0.00 in/hr0.0 mm/hr 0.00 in0.0 mm
10:52 PM 40.9°F4.9°C 17.7°F-7.9°C 39% 3.5 mph ESE5.6 kmh ESE 4.5 mph7.2 kmh 30.02 in1016.6 mb 0.00 in0.0 mm 0.00 in/hr0.0 mm/hr 0.00 in0.0 mm
10:57 PM 40.5°F4.7°C 18.1°F-7.7°C 40% 5.8 mph N9.3 kmh N 6.9 mph11.1 kmh 30.02 in1016.6 mb 0.00 in0.0 mm 0.00 in/hr0.0 mm/hr 0.00 in0.0 mm
11:03 PM 40.9°F4.9°C 18.4°F-7.6°C 40% 3.6 mph NE5.8 kmh NE 6.9 mph11.1 kmh 30.02 in1016.6 mb 0.00 in0.0 mm 0.00 in/hr0.0 mm/hr 0.00 in0.0 mm
11:08 PM 40.9°F4.9°C 18.4°F-7.6°C 40% 0.8 mph NNE1.3 kmh NNE 4.7 mph7.6 kmh 30.01 in1016.3 mb 0.00 in0.0 mm 0.00 in/hr0.0 mm/hr 0.00 in0.0 mm
11:13 PM 40.3°F4.6°C 17.3°F-8.2°C 39% 0.3 mph WNW0.5 kmh WNW 3.8 mph6.1 kmh 30.01 in1016.3 mb 0.00 in0.0 mm 0.00 in/hr0.0 mm/hr 0.00 in0.0 mm
11:18 PM 39.8°F4.3°C 16.7°F-8.5°C 39% Calm Calm 3.4 mph5.5 kmh 30.01 in1016.3 mb 0.00 in0.0 mm 0.00 in/hr0.0 mm/hr 0.00 in0.0 mm
11:23 PM 39.2°F4.0°C 16.9°F-8.4°C 40% Calm Calm 0.2 mph0.3 kmh 30.01 in1016.3 mb 0.00 in0.0 mm 0.00 in/hr0.0 mm/hr 0.00 in0.0 mm
11:28 PM 38.5°F3.6°C 16.3°F-8.7°C 40% 0.4 mph 0.6 kmh 2.7 mph4.3 kmh 30.01 in1016.3 mb 0.00 in0.0 mm 0.00 in/hr0.0 mm/hr 0.00 in0.0 mm
11:33 PM 38.5°F3.6°C 16.3°F-8.7°C 40% 2.1 mph NNE3.4 kmh NNE 4.0 mph6.4 kmh 30.01 in1016.3 mb 0.00 in0.0 mm 0.00 in/hr0.0 mm/hr 0.00 in0.0 mm
11:37 PM 38.9°F3.8°C 17.6°F-8.0°C 42% 1.1 mph NE1.8 kmh NE 4.3 mph6.9 kmh 30.00 in1015.9 mb 0.00 in0.0 mm 0.00 in/hr0.0 mm/hr 0.00 in0.0 mm
11:42 PM 39.4°F4.1°C 18.1°F-7.7°C 42% 0.7 mph NNW1.1 kmh NNW 4.3 mph6.9 kmh 30.01 in1016.3 mb 0.00 in0.0 mm 0.00 in/hr0.0 mm/hr 0.00 in0.0 mm
11:47 PM 39.2°F4.0°C 17.5°F-8.1°C 41% 2.3 mph NW3.7 kmh NW 4.5 mph7.2 kmh 30.01 in1016.3 mb 0.00 in0.0 mm 0.00 in/hr0.0 mm/hr 0.00 in0.0 mm
11:52 PM 38.9°F3.8°C 17.1°F-8.3°C 41% Calm Calm 4.5 mph7.2 kmh 30.01 in1016.3 mb 0.00 in0.0 mm 0.00 in/hr0.0 mm/hr 0.00 in0.0 mm
11:57 PM 38.9°F3.8°C 17.1°F-8.3°C 41% 2.1 mph NE3.4 kmh NE 3.4 mph5.5 kmh 30.01 in1016.3 mb 0.00 in0.0 mm 0.00 in/hr0.0 mm/hr 0.00 in0.0 mm